03:20
Airports
History
Links
Donate
Help keep this website running!
PayPal
Bitcoin
This page is community maintained. The information is intended for PC simulator navigation or reference.
Always use approved charts for navigation.
IL55
Andrew Rla
Andrew Rla (IL55)
Champaign, Illinois, United States (61822)
4
Lat/Lng:40° 9' 37.12" N / 88° 18' 16.19" W
40.16031 / -88.304497
Elevation:810'ft / 247mMSL
ID / ICAO:IL55
Runways:1
Longest:36-18
Grass 370m / 1,214ft
Nearby Weather02:53 GMT 2018-02-25
Nearby weather at KCMI, University Of Illinois-willard located 8.5 nautical miles from IL55
Altimeter: 29.56
Visibility: 6.0 statute miles
Wind: 15 knots (from 140°)
Temp: 11°c / 52°f
Humidity: 100.0%

METAR: KCMI 250253Z 14015KT 6SM BR OVC002 11/11 A2956 RMK AO2 SLP013 60006 T01060106 56058

(Powered by phpweather)
Nearby VORs <50NM
Nearby NDBs
Runway 36 / 18
Dimensions:370.1 x 18.3m 1214' x 60'ft
Surface:Grass
Runway 36 [A]Runway 18 [B]
Heading:000°TH 180°TH
Lat:
Lng:
40° 9' 31.19"N
88° 18' 16.19"W
40° 9' 43.04"N
88° 18' 16.19"W
User Notes and Comments
40° 9' 37.12" N / 88° 18' 16.19" W
Distance To
Airport ID:
Nearby Airports
(R) Mc Culley 4.9 NM
IL56 NNE 32°
4 Oink Acres 5.6 NM
17LL W 270°
(U) Frasca Field 5.7 NM
C16 E 99°
(R) Litchfield Rla 7.8 NM
4IS7 SW 219°
(C) University Of Illinois-willard 8.5 NM
KCMI ( WX ) S 170°
4 Furtney 9.6 NM
15IS NNW 342°
4 Knott 9.9 NM
5LL9 E 97°
VFR Chart
Flight Planning at SkyVector.com